Regional Weather Roundup
Issued by NWS Burlington, VT

Home | Current Version | Previous Version | Text Only | Print | Product List | Glossary On
Versions: 1 2 3 4 5 6 7 8 9 10 11 12 13 14 15 16 17 18 19 20 21 22 23 24 25 26 27 28 29 30 31 32 33 34 35 36 37 38 39 40 41 42 43 44 45 46 47 48 49 50
000
ASUS41 KBTV 201630
RWRBTV
VERMONT REGIONAL WEATHER ROUNDUP
NATIONAL WEATHER SERVICE BURLINGTON VT
1100 AM EST MON NOV 20 2017

NOTE: "FAIR" INDICATES FEW OR NO CLOUDS BELOW 12,000 FEET WITH NO
SIGNIFICANT WEATHER AND/OR OBSTRUCTIONS TO VISIBILITY.

* THESE REPORTS ARE NOT UNDER NWS QUALITY CONTROL AND/OR DO NOT
  REPORT WEATHER SUCH AS PRECIPITATION AND FOG.

VTZ001>019-201700-
_____VERMONT_____


CITY           SKY/WX    TMP DP  RH WIND       PRES   REMARKS
BURLINGTON     CLOUDY    27  12  53 VRB6      29.89F WCI  20
MONTPELIER     CLOUDY    24  12  60 NW10      29.87S WCI  14
MORRISVILLE    CLOUDY    23  11  60 W8        29.87R WCI  14
ST. JOHNSBURY*   N/A     25  12  58 MISG      29.84S
LYNDONVILLE*   PTSUNNY   22  11  64 SW7       29.82S WCI  13
MIDDLEBURY*    CLOUDY    28  13  54 CALM      29.88F
RUTLAND*       CLOUDY    30  14  51 W12G18    29.88F WCI  20
SPRINGFIELD    CLOUDY    31  12  45 VRB6      29.88R WCI  25
HIGHGATE*      CLOUDY    24  11  57 W9        29.89F WCI  15
NEWPORT*       CLOUDY    20  10  65 W10       29.83S WCI   9
BENNINGTON     CLOUDY    31  21  66 VRB7      29.91F WCI  24
SUTTON*          N/A     21 N/A N/A MISG        N/A
ISLAND POND*     N/A     21 N/A N/A W14         N/A  WCI   8
GALLUP MILLS*    N/A     21 N/A N/A MISG        N/A
UNION VILLAGE*   N/A     30 N/A N/A MISG        N/A

_____LAKE CHAMPLAIN_____


CITY           SKY/WX    TMP DP  RH WIND       PRES   REMARKS
BURTON ISLAND*   N/A     28  16  59 NW9G15      N/A  WCI  20
COLCHESTER RF*   N/A     28  18  64 W12         N/A  WCI  18
DIAMOND ISL*     N/A     30  16  55 MISG        N/A

$$

NYZ007-026>031-035-052-083-087-201700-
_____NORTHERN NEW YORK_____


CITY           SKY/WX    TMP DP  RH WIND       PRES   REMARKS
PLATTSBURGH    CLOUDY    27  12  53 VRB5      29.88F WCI  22
SARANAC LAKE   LGT SNOW  20  17  88 SW8       29.78F VSB 3/4 WCI  10
MASSENA        LGT SNOW  22  18  85 W10       29.93S FOG     WCI  11
OGDENSBURG*    SNOW      26  23  88 CALM      29.92S VSB 1/2
POTSDAM*       LGT SNOW  21  21 100 W7        29.91F WCI  13
WATERTOWN      CLOUDY    36  26  67 W21G29    29.89F WCI  25
FT DRUM        PTSUNNY   30  25  80 SW9       29.86F WCI  22
ALBANY         FLURRIES  33  21  61 CALM      29.97F
GLENS FALLS    CLOUDY    33  16  49 SW10      29.92F WCI  25

$$
NHZ002-005-011-201700-
_____NEW HAMPSHIRE_____


CITY           SKY/WX    TMP DP  RH WIND       PRES   REMARKS
LEBANON        CLOUDY    32  15  49 NW9       29.87R WCI  24
KEENE          CLOUDY    35  13  40 W12       29.89S WCI  27
MT WASHINGTON  BLWGSNOW   0   0 100 W85G94      N/A  VSB 0   WCI -37
PLYMOUTH       FAIR      31  12  45 NW16G33   29.82F WCI  20
WHITEFIELD     CLOUDY    24  12  60 W10G18    29.81F WCI  14

$$

_____REGIONAL QUEBEC LOCATIONS_____


CITY           SKY/WX    TMP DP  RH WIND       PRES   REMARKS
MONTREAL       PTSUNNY   23  10  58 W17G26    29.88S WCI   9
QUEBEC CITY    PTSUNNY   18   7  62 W17       29.74R WCI   2
SHERBROOKE     LGT SNOW  18  12  79 W10G21    29.78S WCI   6

_____REGIONAL ONTARIO LOCATIONS_____


CITY           SKY/WX    TMP DP  RH WIND       PRES   REMARKS
OTTAWA         FLURRIES  21  16  79 W9        29.91R WCI  11

______KEY______
VSB  - VISIBILITY IN MILES
WCI  - WIND CHILL INDEX
HX   - HEAT INDEX
$$
NNNN




USA.gov is the U.S. government's official web portal to all federal, state and local government web resources and services.